Location: Gollag?dem
(16.8053°N, 80.8024°E)
Time: 14:25:45
(UTC+00:00)

CENTAUR R/B - Pass Details

Date: 13 August 2020
Orbit: 756 x 1432 km, 63.4° (Epoch: 19 September)

Event Time Altitude Azimuth Distance (km) Brightness Sun altitude
Rises 13:19:39 0° 167° (SSE) 3,206 4.9 -4.7°
Reaches altitude 10° 13:22:53 10° 145° (SE) 2,319 4.0 -5.4°
Maximum altitude 13:26:02 16° 107° (ESE) 1,992 3.5 -6.1°
Drops below altitude 10° 13:29:20 10° 71° (ENE) 2,466 4.2 -6.9°
Sets 13:32:54 0° 51° (NE) 3,519 5.1 -7.7°
